Starlink 3541

operational
NORAD ID: 51854 Int'l Des: 2022-022 Owner: SPXS Country: US Constellation: starlink
LEOCIRCULAR

Starlink 3541について

説明を読み込み中...

リアルタイム位置

3D地球を読み込み中...

次回通過

高度履歴

Altitude vs Time

uPlot chart will show altitude changes over time

軌道要素

1 51854U 22022C 26036.71497965 .00048465 00000-0 27669-2 0 9995
2 51854 53.2154 161.8863 0002356 178.6077 181.4924 15.12284921218207
Epoch: Feb 5, 2026 • Age: 13 hours

現在のステータス

高度 528.0 km
速度 7.60 km/s
衛星直下点 3.38°N, 101.09°E
打ち上げ日 Mar 3, 2022
運用期間 3.9 years
タイプ internet

技術仕様

分類 Payload
質量 297.00 kg
乾燥質量 275.00 kg
総質量 297.00 kg
長さ 0.20 m
直径 2.80 m
スパン 9.00 m
形状 Box + pan
製造者 SPXS
バスタイプ Starlink
フェーズステータス In Orbit
所有者/国 SPXS/US

大規模コンステレーション

Loading constellations...